Regional Weather Roundup
Issued by NWS

Home | Current Version | Previous Version | Graphics & Text | Print | Product List | Glossary On
Versions: 1 2 3 4 5 6 7 8 9 10 11 12 13 14 15 16 17 18 19 20 21 22 23 24 25 26 27 28 29 30 31 32 33 34 35 36 37 38 39 40 41 42 43 44 45 46 47 48 49 50
168
ASUS43 KDMX 221601
RWRIA

WEATHER ROUNDUP FOR IOWA
NATIONAL WEATHER SERVICE DES MOINES IA
1100 AM CDT WED MAR 22 2017

NOTE: "FAIR" INDICATES FEW OR NO CLOUDS BELOW 12,000 FEET WITH NO
SIGNIFICANT WEATHER AND/OR OBSTRUCTIONS TO VISIBILITY.

* - THESE STATIONS ARE NOT NWS STATIONS...THUS NOT UNDER NWS
QUALITY CONTROL.  THEY ALSO DO NOT REPORT WEATHER SUCH
AS PRECIPITATION OR FOG.

IAZ001>003-012>014-020>022-031>034-043>046-221700-
   NORTHWEST IOWA

CITY           SKY/WX    TMP DP  RH WIND       PRES   REMARKS
CARROLL *      CLOUDY    34  23  64 SE16G22   30.45S WCI  23
CHEROKEE *     CLOUDY    32  19  59 SE15      30.45S WCI  22
DENISON *      CLOUDY    32  23  69 SE12      30.42S WCI  23
LE MARS *      CLOUDY    32  18  55 SE14      30.43F WCI  22
ORANGE CITY *  CLOUDY    30  19  64 S12G18    30.42S WCI  21
SHELDON *      CLOUDY    30  23  74 SE16G23   30.41F WCI  19
SIOUX CITY     CLOUDY    33  20  58 SE10      30.43S WCI  25
SPENCER        CLOUDY    30  20  66 SE18      30.45F WCI  18
STORM LAKE *   CLOUDY    30  19  64 SE16      30.44S WCI  19
$$

IAZ055>058-069>071-079>083-090>094-221700-
   SOUTHWEST IOWA

CITY           SKY/WX    TMP DP  RH WIND       PRES   REMARKS
ATLANTIC *     CLOUDY    34  23  64 SE8G16    30.43S WCI  27
AUDUBON *      CLOUDY    34  25  69 SE10      30.44S WCI  26
CLARINDA *     CLOUDY    37  27  65 SE9       30.44S WCI  31
COUNCIL BLFS * CLOUDY    36  23  60 SE8       30.43R WCI  29
CRESTON *      CLOUDY    36  25  64 SE15      30.43F WCI  26
HARLAN  *      CLOUDY    34  23  64 SE13      30.46S WCI  25
LAMONI         CLOUDY    37  25  61 E10       30.43S WCI  30
RED OAK *      CLOUDY    37  25  60 E10       30.42S WCI  30
SHENANDOAH *   CLOUDY    37  23  56 E12       30.43S WCI  30
$$

IAZ047>049-059>061-072>074-084-221700-
   CENTRAL IOWA

CITY           SKY/WX    TMP DP  RH WIND       PRES   REMARKS
AMES           SUNNY     36  25  64 SE14G22   30.49F WCI  27
ANKENY *       MOSUNNY   36  21  55 SE20G25   30.49F WCI  25
BOONE *        SUNNY     36  23  60 SE20G28   30.46S WCI  25
CHARITON *     CLOUDY    36  27  69 E15       30.47S WCI  26
DES MOINES     CLOUDY    37  24  59 SE17      30.48F WCI  27
GRINNELL*      SUNNY     35  22  59 SE16      30.52S WCI  25
MARSHALLTOWN   SUNNY     35  21  56 SE12G24   30.50S WCI  27
NEWTON *       MOSUNNY   36  21  55 SE18G25   30.49F WCI  25
PELLA *        CLOUDY    36  25  64 SE14G23   30.52S WCI  27
PERRY *        PTSUNNY   35  21  57 SE18      30.46F WCI  24
$$

IAZ004>006-015-016-023>025-035-036-221700-
   NORTH CENTRAL IOWA

CITY           SKY/WX    TMP DP  RH WIND       PRES   REMARKS
ALGONA *       CLOUDY    32  21  64 SE18      30.48R WCI  20
CLARION *      CLOUDY    34  21  60 SE18      30.48F WCI  23
ESTHERVILLE    CLOUDY    29  20  69 SE18      30.47R WCI  16
FORT DODGE *   CLOUDY    34  19  55 SE13      30.48S WCI  25
MASON CITY     SUNNY     31  17  56 SE16      30.51F WCI  20
FOREST CITY *    N/A     32  19  59 SE16G22   30.50S WCI  21
WEBSTER CITY * MIX PCPN  34  21  60 SE23      30.46S WCI  22
IOWA FALLS *     N/A     35  22  58 SE15G24   30.51S WCI  25
$$

IAZ007>011-017>019-026>030-037>042-050>054-066-221700-
   NORTHEAST IOWA

CITY           SKY/WX    TMP DP  RH WIND       PRES   REMARKS
CEDAR RAPIDS   MOSUNNY   33  20  58 E15       30.54R WCI  23
CHARLES CITY * SUNNY     30  14  51 SE16      30.52F WCI  19
CLINTON *      SUNNY     32  16  51 E10       30.58S WCI  24
DECORAH *      SUNNY     28   7  40 SE9G16    30.54F WCI  20
DUBUQUE        SUNNY     31  12  45 E12       30.56S WCI  22
MONTICELLO *   SUNNY     32  16  51 E12       30.56R WCI  23
OELWEIN *      SUNNY     32  16  51 E13G24    30.54S WCI  22
WATERLOO         N/A    N/A N/A N/A MISG      30.54S
$$

IAZ064-065-067-068-078-221700-
   EAST CENTRAL IOWA

CITY           SKY/WX    TMP DP  RH WIND       PRES   REMARKS
DAVENPORT      SUNNY     34  15  46 E16       30.57R WCI  24
IOWA CITY      PTSUNNY   35  21  56 SE14      30.57R WCI  26
MUSCATINE *    SUNNY     36  18  48 SE13G20   30.57R WCI  27
QUAD CITIES    SUNNY     36  17  46 E16       30.56S WCI  26
$$

IAZ062-063-075>077-085>089-095>099-221700-
   SOUTHEAST IOWA

CITY           SKY/WX    TMP DP  RH WIND       PRES   REMARKS
BURLINGTON     PTSUNNY   37  25  61 E12       30.53S WCI  29
FAIRFIELD *    MOSUNNY   36  23  60 SE17      30.51F WCI  25
FORT MADISON * MOSUNNY   41  27  56 SE12G18   30.53S
KEOKUK *       MOSUNNY   37  25  60 E13G20    30.52S WCI  29
OSKALOOSA *      N/A     35  24  64 SE15      30.51F WCI  26
CENTERVILLE *    N/A     39  27  60 E14       30.48S WCI  31
OTTUMWA        MOSUNNY   37  24  59 SE18G25   30.50S WCI  27
WASHINGTON *   SUNNY     37  19  48 E15G21    30.55R WCI  28
$$

ABBREVIATIONS USED IN REMARKS
   TC - TEMPERATURES IN CELSIUS
  WCI - WIND CHILL INDEX
   HX - HEAT INDEX
  VSB - VISIBILITY
$$





USA.gov is the U.S. government's official web portal to all federal, state and local government web resources and services.